Regional Weather Roundup
Issued by NWS Bismarck, ND

Home | Current Version | Previous Version | Text Only | Print | Product List | Glossary On
Versions: 1 2 3 4 5 6 7 8 9 10 11 12 13 14 15 16 17 18 19 20 21 22 23 24 25 26 27 28 29 30 31 32 33 34 35 36 37 38 39 40 41 42 43 44 45 46 47 48 49 50
000
ASUS43 KBIS 301420
RWRBIS

NWR BROADCAST TEXT
NATIONAL WEATHER SERVICE BISMARCK ND
900 AM CDT THU OCT 30 2014

NOTE: "FAIR" INDICATES FEW OR NO CLOUDS BELOW 12,000 FEET WITH NO
SIGNIFICANT WEATHER AND/OR OBSTRUCTIONS TO VISIBILITY.


CITY           SKY/WX    TMP DP  RH WIND       PRES   REMARKS
WILLISTON      CLOUDY    36  31  82 N9        30.32R
MINOT          CLOUDY    32  29  88 N13       30.30R
MINOT AFB      CLOUDY    33  32  99 N10       30.30R
BISMARCK       CLEAR     32  29  88 NW7       30.27R
DICKINSON      CLOUDY    35  32  88 N9        30.27R FOG
GARRISON         N/A     33  30  88 N7        30.29R
HETTINGER ARPT CLOUDY    34  32  92 N10       30.27R FOG
JAMESTOWN      CLEAR     32  30  92 N10       30.19R
BEACH            N/A     32  32 100 NW7       30.32R
CARRINGTON     CLOUDY    28  28 100 N7        30.25R FOG
CROSBY         CLOUDY    32  32 100 N8        30.34R
HARVEY         CLOUDY    30  30 100 N10       30.29R
HAZEN          CLOUDY    32  30  93 CALM      30.32R
LINTON         CLOUDY    32  32 100 N9        30.24R
MANDAN         FAIR      32  28  86 NW10      30.29R
OAKES            N/A     37  37 100 N20G29    30.14R FOG
RUGBY          PTSUNNY   32  32 100 NW7       30.29R
STANLEY        CLOUDY    32  32 100 N8        30.30R
TIOGA          CLOUDY    32  32 100 NE6       30.34R FOG
$$

CITY           SKY/WX    TMP DP  RH WIND       PRES   REMARKS
GRAND FORKS    CLOUDY    33  30  88 N13       30.20R
GRAND FORKS AF CLOUDY    34  32  94 N12       30.21R
DEVILS LAKE    CLOUDY    34  23  64 N16       30.24R
FARGO          CLOUDY    40  37  89 N13       30.14R
CANDO          CLOUDY    32  28  86 N15       30.29R
CAVALIER       CLOUDY    36  30  80 N20       30.25R
GRAFTON        CLOUDY    36  32  87 N14       30.23R
GWINNER        CLOUDY    39  39 100 N18G28    30.15R
LANGDON        CLOUDY    32  28  86 N18G25    30.24R
ROLLA          CLOUDY    28  28 100 N17G25    30.28R WCI  16
WALHALLA         N/A     32  32 100 N18G25    30.26R
$$

CITY           SKY/WX    TMP DP  RH WIND       PRES   REMARKS
ABERDEEN       CLOUDY    39  36  89 N17       30.13R
MOBRIDGE       MOCLDY    39  34  82 N21G30    30.19R
BUFFALO          N/A     33  31  92 N20       30.21R
RAPID CITY     CLEAR     36  29  75 CALM      30.25R
GLASGOW        CLOUDY    35  31  85 E6        30.32R
SIDNEY         CLOUDY    36  28  75 N8        30.35R
WOLF POINT     CLOUDY    37  31  78 NE7       30.34R
GLENDIVE       CLOUDY    36  32  87 NE3       30.34R
MILES CITY     CLEAR     28  25  88 NW3       30.30R
BAKER          CLOUDY    33  32  96 N7        30.31R
$$

CITY           SKY/WX    TMP DP  RH WIND       PRES   REMARKS
BILLINGS       PTCLDY    34  25  69 SW13      30.29R
GREAT FALLS    CLEAR     33  28  81 CALM      30.24R
REGINA         CLOUDY    32  30  93 NE8       30.38R
ESTEVAN        CLOUDY    34  30  86 N8        30.33R
$$




USA.gov is the U.S. government's official web portal to all federal, state and local government web resources and services.